Location: Hard Labor Creek Observatory
(33.6704°N, 83.5946°W)
Time: 01:10:28
(UTC-04:00)

Envisat - Visible Passes

Search period start: 28 September 2020 00:00
Search period end: 08 October 2020 00:00
Orbit: 764 x 766 km, 98.1° (Epoch: 27 September)

Date Brightness Start Highest point End Pass type
(mag) Time Alt. Az. Time Alt. Az. Time Alt. Az.
29 Sep 6.0 19:56:21 10° SW 20:00:03 20° W 20:03:47 10° NW visible
30 Sep 6.1 06:30:10 10° NE 06:33:32 18° E 06:36:53 10° SE visible
01 Oct 6.7 20:24:55 10° W 20:25:43 10° W 20:26:31 10° W visible
02 Oct 5.1 06:54:35 10° NE 06:59:08 32° E 07:03:39 10° SSE visible
02 Oct 5.6 19:44:25 10° SSW 19:48:37 26° W 19:52:52 10° NW visible
03 Oct 6.3 06:19:40 10° ENE 06:22:05 13° E 06:24:29 10° ESE visible
04 Oct 6.3 20:11:38 10° SW 20:14:14 14° W 20:16:53 10° WNW visible
05 Oct 5.6 06:43:32 10° NE 06:47:43 25° E 06:51:50 10° SSE visible
05 Oct 5.0 19:32:38 10° SSW 19:37:12 34° W 19:41:48 10° NNW visible
07 Oct 6.1 19:59:19 10° SW 20:02:47 18° W 20:06:17 10° NW visible
